Weather History for Morgantown, WV

Change the Weather History Date:

Monday, December 31, 2007

  Actual Average Record
Temperature  
Mean Temperature 40 °F 32 °F  
Max Temperature 46 °F 39 °F 71 °F (1972)
Min Temperature 35 °F 24 °F 3 °F (1983)
Degree Days  
Heating Degree Days 24 33  
Month to date heating degree days 937  
Since 1 July heating degree days 1984  
Cooling Degree Days 0 0  
Month to date cooling degree days 0  
Year to date cooling degree days 814  
Moisture  
Dew Point 27 °F    
Average Humidity 63    
Maximum Humidity 81    
Minimum Humidity 38    
Precipitation  
Precipitation 0.00 in 0.08 in 0.53 in (1970)
Month to date precipitation 2.91  
Year to date precipitation 41.83  
Sea Level Pressure  
Sea Level Pressure 29.97 in    
Wind  
Wind Speed 7 mph (SSW)    
Max Wind Speed 16 mph    
Max Gust Speed 16 mph    
Visibility 10 miles    
Events      
T = Trace of Precipitation, MM = Missing Value Source: NWS Daily Summary

Daily Weather History Graph

Daily Weather History Graph

Search for Another Location

Airport:

Trip Planner

Search our weather history database for the weather conditions in past years. The results will help you decide how hot, cold, wet, or windy it might be!

Date:

Astronomy

Dec. 31, 2007 Rise Set
Actual Time 7:40 AM EST 5:05 PM EST
Civil Twilight 7:10 AM EST 5:35 PM EST
Nautical Twilight 6:36 AM EST 6:09 PM EST
Astronomical Twilight 6:03 AM EST 6:41 PM EST
Moon 12:28 AM EST (12/31) 11:56 AM EST (12/31)
Length of Visible Light 10h 25m
Length of Day
9h 24m
Waning Gibbous, 46% of the Moon is Illuminated
Dec 31
Waning Gibbous
Jan 8
New
Jan 15
First Quarter
Jan 22
Full
Jan 30
Last Quarter

Hourly Weather History & Observations

Time (EST) Temp. Windchill Dew Point Humidity Pressure Visibility Wind Dir Wind Speed Gust Speed Precip Events Conditions
12:43 AM 37.4 °F 32.1 °F 30.2 °F 75% 29.89 in 10.0 mi SSW 6.9 mph - N/A   Overcast
12:53 AM 37.0 °F 31.0 °F 30.9 °F 79% 29.92 in 10.0 mi SW 8.1 mph - N/A   Overcast
1:12 AM 37.4 °F 32.1 °F 30.2 °F 75% 29.89 in 10.0 mi SW 6.9 mph - N/A   Overcast
1:27 AM 35.6 °F 27.5 °F 30.2 °F 81% 29.89 in 10.0 mi SSW 11.5 mph - N/A   Overcast
1:38 AM 35.6 °F 29.9 °F 30.2 °F 81% 29.89 in 10.0 mi SSW 6.9 mph - N/A   Overcast
1:53 AM 36.0 °F 31.1 °F 30.0 °F 79% 29.93 in 10.0 mi SSW 5.8 mph - N/A   Overcast
2:53 AM 36.0 °F 31.1 °F 30.0 °F 79% 29.94 in 10.0 mi SSW 5.8 mph - N/A   Overcast
3:53 AM 36.0 °F 31.1 °F 30.0 °F 79% 29.96 in 10.0 mi Variable 5.8 mph 16.1 mph N/A   Overcast
4:13 AM 35.6 °F 29.2 °F 28.4 °F 75% 29.94 in 10.0 mi SW 8.1 mph - N/A   Overcast
4:53 AM 36.0 °F 30.3 °F 28.0 °F 73% 29.98 in 10.0 mi WSW 6.9 mph - N/A   Overcast
5:53 AM 36.0 °F 32.1 °F 27.0 °F 70% 29.99 in 10.0 mi WSW 4.6 mph - N/A   Overcast
6:53 AM 35.1 °F 28.6 °F 26.1 °F 70% 30.02 in 10.0 mi WSW 8.1 mph - N/A   Overcast
7:53 AM 35.1 °F 32.2 °F 26.1 °F 70% 30.03 in 10.0 mi Variable 3.5 mph - N/A   Overcast
8:53 AM 36.0 °F 33.3 °F 26.1 °F 67% 30.04 in 10.0 mi SSW 3.5 mph - N/A   Overcast
9:53 AM 37.0 °F 34.5 °F 27.0 °F 67% 30.06 in 10.0 mi Variable 3.5 mph - N/A   Overcast
10:53 AM 37.9 °F 35.5 °F 28.0 °F 68% 30.07 in 10.0 mi SSW 3.5 mph - N/A   Overcast
11:53 AM 39.0 °F 34.0 °F 28.9 °F 67% 30.06 in 10.0 mi SW 6.9 mph - N/A   Mostly Cloudy
12:53 PM 41.0 °F 33.9 °F 28.0 °F 60% 30.05 in 10.0 mi SW 12.7 mph - N/A   Mostly Cloudy
1:15 PM 42.8 °F 39.3 °F 28.4 °F 57% 30.02 in 10.0 mi Variable 5.8 mph - N/A   Scattered Clouds
1:53 PM 44.1 °F 37.4 °F 27.0 °F 51% 30.04 in 10.0 mi SW 13.8 mph - N/A   Clear
2:53 PM 45.0 °F 38.9 °F 26.1 °F 48% 30.03 in 10.0 mi SW 12.7 mph - N/A   Partly Cloudy
3:53 PM 46.0 °F 43.1 °F 26.1 °F 46% 30.04 in 10.0 mi Variable 5.8 mph - N/A   Clear
4:53 PM 44.1 °F 41.5 °F 25.0 °F 47% 30.02 in 10.0 mi South 4.6 mph - N/A   Clear
5:53 PM 41.0 °F 38.0 °F 24.1 °F 51% 29.99 in 10.0 mi SE 4.6 mph - N/A   Clear
6:53 PM 36.0 °F 31.1 °F 24.1 °F 62% 29.99 in 10.0 mi SSE 5.8 mph - N/A   Clear
7:53 PM 39.9 °F 37.8 °F 21.9 °F 49% 29.98 in 10.0 mi South 3.5 mph - N/A   Clear
8:53 PM 41.0 °F 34.3 °F 19.9 °F 43% 29.94 in 10.0 mi SE 11.5 mph - N/A   Clear
9:53 PM 41.0 °F 33.9 °F 21.0 °F 45% 29.89 in 10.0 mi SE 12.7 mph - N/A   Clear
10:53 PM 43.0 °F 35.4 °F 21.0 °F 42% 29.86 in 10.0 mi SSE 16.1 mph - N/A   Mostly Cloudy
11:53 PM 44.1 °F 41.5 °F 19.9 °F 38% 29.83 in 10.0 mi South 4.6 mph - N/A   Mostly Cloudy